| time (UTC) | temp F | wind direction | speed knots | gust knots | rain 1hr in | rain 24hr in | rain mn in | humidity % | barometer mb |
| 20260505184026 | 59 | 292 | 0.9 | 9.6 | 0.00 | 0.00 | 0.00 | 81 | 1003.2 |
| 20260505183526 | 59 | 211 | 3.5 | 9.6 | 0.00 | 0.00 | 0.00 | 81 | 1003.3 |
| 20260505183040 | 59 | 181 | 4.3 | 9.6 | 0.00 | 0.00 | 0.00 | 79 | 1003.1 |
| 20260505182524 | 61 | 28 | 1.7 | 22.6 | 0.00 | 0.00 | 0.00 | 75 | 1003.7 |
| 20260505182022 | 63 | 292 | 3.5 | 22.6 | 0.00 | 0.00 | 0.00 | 70 | 1004.3 |
| 20260505181522 | 66 | 188 | 5.2 | 20.9 | 0.00 | 0.00 | 0.00 | 56 | 1003.7 |
| 20260505181021 | 66 | 229 | 1.7 | 3.5 | 0.00 | 0.00 | 0.00 | 63 | 1003.0 |
| 20260505180521 | 66 | 92 | 0.0 | 6.1 | 0.00 | 0.00 | 0.00 | 61 | 1002.7 |
| 20260505180021 | 66 | 148 | 1.7 | 5.2 | 0.00 | 0.00 | 0.00 | 61 | 1002.6 |
| 20260505175521 | 67 | 213 | 0.0 | 10.4 | 0.00 | 0.00 | 0.00 | 58 | 1002.6 |
| 20260505175020 | 69 | 256 | 4.3 | 13.9 | 0.00 | 0.00 | 0.00 | 52 | 1002.5 |
| 20260505174520 | 72 | 287 | 4.3 | 16.5 | 0.00 | 0.00 | 0.00 | 42 | 1002.9 |
| 20260505174020 | 73 | 183 | 2.6 | 15.6 | 0.00 | 0.00 | 0.00 | 37 | 1002.7 |
| 20260505173519 | 73 | 265 | 4.3 | 18.2 | 0.00 | 0.00 | 0.00 | 36 | 1002.6 |
| 20260505173022 | 74 | 196 | 5.2 | 18.2 | 0.00 | 0.00 | 0.00 | 36 | 1002.9 |
| 20260505172522 | 75 | 24 | 5.2 | 13.9 | 0.00 | 0.00 | 0.00 | 35 | 1002.7 |
| 20260505172019 | 76 | 173 | 4.3 | 16.5 | 0.00 | 0.00 | 0.00 | 36 | 1002.6 |
| 20260505171517 | 75 | 198 | 4.3 | 16.5 | 0.00 | 0.00 | 0.00 | 37 | 1002.6 |
| 20260505171017 | 75 | 248 | 5.2 | 14.8 | 0.00 | 0.00 | 0.00 | 38 | 1002.4 |
| 20260505170517 | 74 | 300 | 4.3 | 14.8 | 0.00 | 0.00 | 0.00 | 37 | 1002.4 |
| 20260505170018 | 74 | 204 | 2.6 | 15.6 | 0.00 | 0.00 | 0.00 | 36 | 1002.6 |
| 20260505165516 | 74 | 233 | 6.1 | 15.6 | 0.00 | 0.00 | 0.00 | 36 | 1002.5 |
| 20260505165016 | 74 | 13 | 5.2 | 13.0 | 0.00 | 0.00 | 0.00 | 36 | 1002.5 |
| 20260505164517 | 74 | 290 | 4.3 | 13.0 | 0.00 | 0.00 | 0.00 | 36 | 1002.7 |
| 20260505164015 | 75 | 224 | 2.6 | 17.4 | 0.00 | 0.00 | 0.00 | 37 | 1002.7 |
| 20260505163515 | 75 | 196 | 7.0 | 17.4 | 0.00 | 0.00 | 0.00 | 36 | 1002.8 |
| 20260505163015 | 75 | 225 | 7.0 | 17.4 | 0.00 | 0.00 | 0.00 | 35 | 1002.9 |
| 20260505162513 | 74 | 232 | 3.5 | 21.7 | 0.00 | 0.00 | 0.00 | 36 | 1003.0 |
| 20260505162014 | 74 | 250 | 7.8 | 22.6 | 0.00 | 0.00 | 0.00 | 37 | 1003.0 |
| 20260505161513 | 74 | 197 | 7.0 | 13.0 | 0.00 | 0.00 | 0.00 | 36 | 1003.1 |
| 20260505161012 | 74 | 239 | 5.2 | 17.4 | 0.00 | 0.00 | 0.00 | 38 | 1002.9 |
| 20260505160512 | 74 | 284 | 7.0 | 17.4 | 0.00 | 0.00 | 0.00 | 36 | 1002.9 |
| 20260505153004 | 71 | 198 | 8.7 | 20.9 | 0.00 | 0.00 | 0.00 | 40 | 1003.1 |
| 20260505152502 | 71 | 209 | 8.7 | 19.1 | 0.00 | 0.00 | 0.00 | 41 | 1003.3 |
| 20260505152002 | 70 | 206 | 8.7 | 19.1 | 0.00 | 0.00 | 0.00 | 42 | 1003.3 |
| 20260505151500 | 70 | 212 | 9.6 | 19.1 | 0.00 | 0.00 | 0.00 | 42 | 1003.4 |
| 20260505151100 | 70 | 237 | 7.0 | 16.5 | 0.00 | 0.00 | 0.00 | 43 | 1003.4 |
| 20260505150559 | 70 | 187 | 4.3 | 12.2 | 0.00 | 0.00 | 0.00 | 45 | 1003.5 |
| 20260505140545 | 67 | 230 | 5.2 | 15.6 | 0.00 | 0.00 | 0.00 | 49 | 1003.8 |
| 20260505125024 | 62 | 201 | 3.5 | 10.4 | 0.00 | 0.00 | 0.00 | 58 | 1004.6 |
| 20260505124523 | 62 | 213 | 4.3 | 13.9 | 0.00 | 0.00 | 0.00 | 59 | 1004.7 |
| 20260505124020 | 62 | 199 | 4.3 | 13.9 | 0.00 | 0.00 | 0.00 | 60 | 1004.8 |
| 20260505123525 | 61 | 235 | 1.7 | 15.6 | 0.00 | 0.00 | 0.00 | 59 | 1004.6 |
| 20260505123019 | 61 | 266 | 5.2 | 15.6 | 0.00 | 0.00 | 0.00 | 59 | 1004.6 |
| 20260505122518 | 61 | 209 | 4.3 | 13.9 | 0.00 | 0.00 | 0.00 | 59 | 1004.5 |
| 20260505122021 | 60 | 207 | 7.8 | 13.9 | 0.00 | 0.00 | 0.00 | 59 | 1004.5 |
| 20260505121516 | 60 | 206 | 5.2 | 14.8 | 0.00 | 0.00 | 0.00 | 60 | 1004.4 |
| 20260505121014 | 60 | 167 | 4.3 | 11.3 | 0.00 | 0.00 | 0.00 | 61 | 1004.3 |
| 20260505120515 | 59 | 200 | 2.6 | 11.3 | 0.00 | 0.00 | 0.00 | 62 | 1004.2 |
| 20260505120012 | 59 | 188 | 3.5 | 11.3 | 0.00 | 0.00 | 0.00 | 62 | 1004.1 |
| 20260505115513 | 59 | 231 | 4.3 | 15.6 | 0.00 | 0.00 | 0.00 | 62 | 1003.9 |
| 20260505115013 | 59 | 173 | 7.0 | 12.2 | 0.00 | 0.00 | 0.00 | 60 | 1004.0 |
| 20260505114512 | 59 | 194 | 3.5 | 12.2 | 0.00 | 0.00 | 0.00 | 60 | 1003.9 |
| 20260505114010 | 59 | 134 | 3.5 | 15.6 | 0.00 | 0.00 | 0.00 | 60 | 1003.9 |
| 20260505113514 | 59 | 216 | 5.2 | 15.6 | 0.00 | 0.00 | 0.00 | 60 | 1004.1 |
| 20260505113011 | 58 | 197 | 4.3 | 12.2 | 0.00 | 0.00 | 0.00 | 60 | 1004.3 |
| 20260505112511 | 58 | 212 | 3.5 | 18.2 | 0.00 | 0.00 | 0.00 | 61 | 1004.3 |
| 20260505112010 | 58 | 205 | 7.8 | 18.2 | 0.00 | 0.00 | 0.00 | 60 | 1004.3 |
| 20260505111510 | 58 | 198 | 7.8 | 18.2 | 0.00 | 0.00 | 0.00 | 60 | 1004.3 |
| 20260505111009 | 58 | 194 | 7.8 | 18.2 | 0.00 | 0.00 | 0.00 | 61 | 1004.1 |
| 20260505110506 | 58 | 228 | 5.2 | 14.8 | 0.00 | 0.00 | 0.00 | 60 | 1004.1 |
| 20260505102002 | 56 | 180 | 5.2 | 10.4 | 0.00 | 0.00 | 0.00 | 65 | 1003.5 |
| 20260505101600 | 56 | 146 | 5.2 | 11.3 | 0.00 | 0.00 | 0.00 | 64 | 1003.6 |
| 20260505101058 | 56 | 188 | 4.3 | 9.6 | 0.00 | 0.00 | 0.00 | 64 | 1003.5 |
| 20260505100557 | 56 | 190 | 3.5 | 9.6 | 0.00 | 0.00 | 0.00 | 65 | 1003.6 |
| 20260505100056 | 55 | 184 | 3.5 | 7.8 | 0.00 | 0.00 | 0.00 | 66 | 1003.7 |
| 20260505095556 | 55 | 196 | 1.7 | 7.0 | 0.00 | 0.00 | 0.00 | 67 | 1003.7 |
| 20260505095056 | 55 | 176 | 2.6 | 7.0 | 0.00 | 0.00 | 0.00 | 68 | 1003.7 |
| 20260505094554 | 55 | 168 | 2.6 | 7.8 | 0.00 | 0.00 | 0.00 | 69 | 1003.9 |
| 20260505094055 | 55 | 180 | 3.5 | 8.7 | 0.00 | 0.00 | 0.00 | 70 | 1004.0 |
| 20260505093553 | 55 | 183 | 5.2 | 8.7 | 0.00 | 0.00 | 0.00 | 70 | 1004.0 |
| 20260505093053 | 55 | 183 | 3.5 | 7.0 | 0.00 | 0.00 | 0.00 | 70 | 1004.0 |
| 20260505092555 | 55 | 177 | 1.7 | 7.8 | 0.00 | 0.00 | 0.00 | 70 | 1004.1 |
| 20260505092050 | 55 | 169 | 2.6 | 6.1 | 0.00 | 0.00 | 0.00 | 70 | 1004.2 |
| 20260505091604 | 56 | 211 | 2.6 | 7.8 | 0.00 | 0.00 | 0.00 | 68 | 1004.1 |
| 20260505091048 | 57 | 190 | 1.7 | 10.4 | 0.00 | 0.00 | 0.00 | 66 | 1004.1 |
| 20260505090546 | 58 | 189 | 5.2 | 12.2 | 0.00 | 0.00 | 0.00 | 57 | 1004.4 |
| 20260505090049 | 58 | 221 | 5.2 | 12.2 | 0.00 | 0.00 | 0.00 | 56 | 1004.1 |
| 20260505085545 | 57 | 201 | 4.3 | 14.8 | 0.00 | 0.00 | 0.00 | 54 | 1003.9 |
| 20260505085045 | 57 | 148 | 5.2 | 14.8 | 0.00 | 0.00 | 0.00 | 54 | 1003.9 |
| 20260505084548 | 57 | 188 | 5.2 | 9.6 | 0.00 | 0.00 | 0.00 | 54 | 1003.8 |
| 20260505084044 | 57 | 173 | 4.3 | 10.4 | 0.00 | 0.00 | 0.00 | 54 | 1003.9 |
| 20260505083543 | 57 | 196 | 4.3 | 10.4 | 0.00 | 0.00 | 0.00 | 53 | 1003.9 |
| 20260505083044 | 57 | 182 | 3.5 | 8.7 | 0.00 | 0.00 | 0.00 | 53 | 1003.9 |
| 20260505082543 | 57 | 169 | 4.3 | 7.8 | 0.00 | 0.00 | 0.00 | 53 | 1003.9 |
| 20260505082043 | 57 | 182 | 4.3 | 8.7 | 0.00 | 0.00 | 0.00 | 53 | 1003.8 |
| 20260505081543 | 57 | 215 | 2.6 | 8.7 | 0.00 | 0.00 | 0.00 | 53 | 1004.1 |
| 20260505081043 | 57 | 186 | 1.7 | 7.0 | 0.00 | 0.00 | 0.00 | 53 | 1004.1 |
| 20260505080545 | 57 | 211 | 2.6 | 6.1 | 0.00 | 0.00 | 0.00 | 53 | 1004.2 |
| 20260505080044 | 57 | 210 | 2.6 | 6.1 | 0.00 | 0.00 | 0.00 | 55 | 1004.3 |
| 20260505075545 | 57 | 209 | 1.7 | 4.3 | 0.00 | 0.00 | 0.00 | 56 | 1004.4 |
| 20260505075042 | 57 | 173 | 1.7 | 5.2 | 0.00 | 0.00 | 0.00 | 56 | 1004.6 |
| 20260505074541 | 57 | 50 | 0.0 | 8.7 | 0.00 | 0.00 | 0.00 | 56 | 1004.6 |
| 20260505074039 | 57 | 5 | 0.9 | 8.7 | 0.00 | 0.00 | 0.00 | 55 | 1004.6 |
| 20260505073539 | 57 | 253 | 1.7 | 9.6 | 0.00 | 0.00 | 0.00 | 55 | 1004.5 |
| 20260505073043 | 57 | 205 | 5.2 | 12.2 | 0.00 | 0.00 | 0.00 | 55 | 1004.4 |
| 20260505072640 | 57 | 244 | 3.5 | 12.2 | 0.00 | 0.00 | 0.00 | 55 | 1004.3 |
| 20260505072038 | 58 | 229 | 6.1 | 13.9 | 0.00 | 0.00 | 0.00 | 51 | 1004.4 |
| 20260505071536 | 58 | 217 | 7.8 | 13.9 | 0.00 | 0.00 | 0.00 | 50 | 1004.2 |
| 20260505071035 | 58 | 217 | 7.0 | 16.5 | 0.00 | 0.00 | 0.00 | 50 | 1004.0 |
| 20260505070536 | 58 | 194 | 7.8 | 16.5 | 0.00 | 0.00 | 0.00 | 50 | 1004.0 |
| 20260505070041 | 58 | 180 | 9.6 | 13.9 | 0.00 | 0.00 | 0.00 | 49 | 1003.9 |
| 20260505065535 | 58 | 182 | 7.8 | 15.6 | 0.00 | 0.00 | 0.00 | 50 | 1003.8 |
| 20260505065034 | 58 | 145 | 7.8 | 18.2 | 0.00 | 0.00 | 0.00 | 49 | 1003.8 |
| 20260505064535 | 58 | 190 | 8.7 | 18.2 | 0.00 | 0.00 | 0.00 | 49 | 1003.8 |
| 20260505064032 | 58 | 178 | 7.0 | 18.2 | 0.00 | 0.00 | 0.00 | 50 | 1003.8 |
| 20260505063532 | 58 | 215 | 11.3 | 19.1 | 0.00 | 0.00 | 0.00 | 49 | 1003.8 |
| 20260505063031 | 58 | 182 | 6.1 | 19.1 | 0.00 | 0.00 | 0.00 | 50 | 1003.9 |
| 20260505062532 | 58 | 201 | 8.7 | 20.0 | 0.00 | 0.00 | 0.00 | 51 | 1003.8 |
| 20260505062029 | 58 | 162 | 8.7 | 19.1 | 0.00 | 0.00 | 0.00 | 49 | 1003.8 |
| 20260505061538 | 58 | 159 | 8.7 | 14.8 | 0.00 | 0.00 | 0.00 | 49 | 1003.9 |
| 20260505061027 | 58 | 186 | 7.8 | 13.9 | 0.00 | 0.00 | 0.00 | 49 | 1003.9 |
| 20260505060527 | 58 | 208 | 8.7 | 14.8 | 0.00 | 0.00 | 0.00 | 49 | 1004.1 |
| 20260505060026 | 58 | 223 | 7.0 | 14.8 | 0.00 | 0.00 | 0.00 | 49 | 1004.0 |
| 20260505055525 | 58 | 171 | 6.1 | 15.6 | 0.00 | 0.00 | 0.00 | 49 | 1004.0 |
| 20260505055026 | 58 | 177 | 9.6 | 15.6 | 0.00 | 0.00 | 0.00 | 49 | 1004.1 |
| 20260505054533 | 58 | 163 | 8.7 | 15.6 | 0.00 | 0.00 | 0.00 | 48 | 1004.0 |
| 20260505054025 | 58 | 201 | 7.0 | 15.6 | 0.00 | 0.00 | 0.00 | 48 | 1004.1 |
| 20260505053527 | 59 | 177 | 7.0 | 18.2 | 0.00 | 0.00 | 0.00 | 47 | 1004.1 |
| 20260505053023 | 59 | 152 | 9.6 | 18.2 | 0.00 | 0.00 | 0.00 | 47 | 1004.2 |
| 20260505052521 | 59 | 173 | 8.7 | 20.9 | 0.00 | 0.00 | 0.00 | 47 | 1004.1 |
| 20260505052020 | 59 | 202 | 7.0 | 22.6 | 0.00 | 0.00 | 0.00 | 46 | 1004.1 |
| 20260505051521 | 59 | 209 | 10.4 | 22.6 | 0.00 | 0.00 | 0.00 | 46 | 1004.2 |
| 20260505051019 | 59 | 166 | 7.0 | 17.4 | 0.00 | 0.00 | 0.00 | 46 | 1004.3 |
| 20260505050521 | 59 | 192 | 7.0 | 15.6 | 0.00 | 0.00 | 0.00 | 47 | 1004.3 |
| 20260505041517 | 59 | 185 | 5.2 | 13.0 | 0.00 | 0.00 | 0.00 | 46 | 1004.3 |
| 20260505041008 | 59 | 198 | 7.0 | 13.9 | 0.00 | 0.00 | 0.00 | 46 | 1004.2 |
| 20260505040507 | 59 | 182 | 6.1 | 13.9 | 0.00 | 0.00 | 0.00 | 46 | 1004.3 |
| 20260505040007 | 59 | 167 | 6.1 | 12.2 | 0.00 | 0.00 | 0.00 | 46 | 1004.3 |
| 20260505035511 | 59 | 177 | 7.0 | 12.2 | 0.00 | 0.00 | 0.00 | 45 | 1004.3 |
| 20260505035006 | 59 | 211 | 6.1 | 14.8 | 0.00 | 0.00 | 0.00 | 45 | 1004.2 |
| 20260505034505 | 59 | 191 | 6.1 | 14.8 | 0.00 | 0.00 | 0.00 | 45 | 1004.1 |
| 20260505034005 | 59 | 168 | 7.0 | 13.9 | 0.00 | 0.00 | 0.00 | 44 | 1004.1 |
| 20260505033506 | 59 | 155 | 5.2 | 13.9 | 0.00 | 0.00 | 0.00 | 44 | 1004.1 |
| 20260505033005 | 59 | 131 | 6.1 | 13.0 | 0.00 | 0.00 | 0.00 | 44 | 1004.1 |
| 20260505032505 | 59 | 195 | 3.5 | 12.2 | 0.00 | 0.00 | 0.00 | 44 | 1004.3 |
| 20260505032006 | 59 | 174 | 6.1 | 13.0 | 0.00 | 0.00 | 0.00 | 44 | 1004.3 |
| 20260505031507 | 59 | 188 | 7.0 | 12.2 | 0.00 | 0.00 | 0.00 | 43 | 1004.3 |
| 20260505031007 | 60 | 148 | 6.1 | 10.4 | 0.00 | 0.00 | 0.00 | 43 | 1004.3 |
| 20260505030503 | 60 | 192 | 5.2 | 12.2 | 0.00 | 0.00 | 0.00 | 42 | 1004.3 |
| 20260505030003 | 60 | 177 | 7.0 | 15.6 | 0.00 | 0.00 | 0.00 | 42 | 1004.3 |
| 20260505025504 | 61 | 133 | 6.1 | 15.6 | 0.00 | 0.00 | 0.00 | 41 | 1004.4 |
| 20260505025004 | 61 | 202 | 7.0 | 12.2 | 0.00 | 0.00 | 0.00 | 41 | 1004.4 |
| 20260505024504 | 61 | 187 | 6.1 | 12.2 | 0.00 | 0.00 | 0.00 | 41 | 1004.4 |
| 20260505024003 | 61 | 151 | 5.2 | 12.2 | 0.00 | 0.00 | 0.00 | 41 | 1004.4 |
| 20260505023503 | 61 | 186 | 5.2 | 9.6 | 0.00 | 0.00 | 0.00 | 41 | 1004.6 |
| 20260505023008 | 61 | 181 | 4.3 | 9.6 | 0.00 | 0.00 | 0.00 | 40 | 1004.5 |
| 20260505022502 | 61 | 182 | 5.2 | 11.3 | 0.00 | 0.00 | 0.00 | 40 | 1004.6 |
| 20260505022003 | 61 | 186 | 4.3 | 9.6 | 0.00 | 0.00 | 0.00 | 40 | 1004.6 |
| 20260505021502 | 61 | 176 | 4.3 | 9.6 | 0.00 | 0.00 | 0.00 | 40 | 1004.5 |
| 20260505021001 | 61 | 139 | 4.3 | 7.8 | 0.00 | 0.00 | 0.00 | 39 | 1004.7 |
| 20260505020501 | 61 | 175 | 3.5 | 7.0 | 0.00 | 0.00 | 0.00 | 40 | 1004.6 |
| 20260505020002 | 61 | 174 | 3.5 | 9.6 | 0.00 | 0.00 | 0.00 | 40 | 1004.7 |
| 20260505015502 | 61 | 163 | 4.3 | 9.6 | 0.00 | 0.00 | 0.00 | 39 | 1004.8 |
| 20260505015100 | 61 | 165 | 4.3 | 8.7 | 0.00 | 0.00 | 0.00 | 39 | 1004.8 |
| 20260505014610 | 61 | 164 | 3.5 | 9.6 | 0.00 | 0.00 | 0.00 | 39 | 1004.8 |
| 20260505014100 | 61 | 136 | 2.6 | 9.6 | 0.00 | 0.00 | 0.00 | 38 | 1004.8 |
| 20260505013559 | 61 | 187 | 3.5 | 7.8 | 0.00 | 0.00 | 0.00 | 38 | 1004.7 |
| 20260505013059 | 61 | 187 | 3.5 | 7.8 | 0.00 | 0.00 | 0.00 | 38 | 1004.8 |
| 20260505013001 | 61 | 155 | 3.5 | 6.1 | 0.00 | 0.00 | 0.00 | 38 | 1004.8 |
| 20260505012600 | 61 | 156 | 2.6 | 7.0 | 0.00 | 0.00 | 0.00 | 38 | 1004.8 |
| 20260505012058 | 61 | 165 | 1.7 | 5.2 | 0.00 | 0.00 | 0.00 | 39 | 1004.8 |
| 20260505011606 | 61 | 167 | 2.6 | 4.3 | 0.00 | 0.00 | 0.00 | 38 | 1004.7 |
| 20260505011057 | 61 | 155 | 2.6 | 5.2 | 0.00 | 0.00 | 0.00 | 38 | 1004.8 |
| 20260505010557 | 61 | 151 | 2.6 | 4.3 | 0.00 | 0.00 | 0.00 | 38 | 1004.7 |
| 20260505010057 | 61 | 142 | 2.6 | 7.0 | 0.00 | 0.00 | 0.00 | 38 | 1004.7 |
| 20260505005557 | 61 | 158 | 2.6 | 7.8 | 0.00 | 0.00 | 0.00 | 38 | 1004.5 |
| 20260505005059 | 61 | 150 | 1.7 | 5.2 | 0.00 | 0.00 | 0.00 | 38 | 1004.5 |
| 20260505004557 | 61 | 178 | 1.7 | 4.3 | 0.00 | 0.00 | 0.00 | 38 | 1004.5 |
| 20260505004057 | 62 | 142 | 1.7 | 5.2 | 0.00 | 0.00 | 0.00 | 37 | 1004.5 |
| 20260505003557 | 62 | 123 | 1.7 | 4.3 | 0.00 | 0.00 | 0.00 | 38 | 1004.6 |
| 20260505003056 | 62 | 169 | 1.7 | 4.3 | 0.00 | 0.00 | 0.00 | 37 | 1004.5 |
| 20260505002556 | 62 | 182 | 1.7 | 5.2 | 0.00 | 0.00 | 0.00 | 37 | 1004.5 |
| 20260505002056 | 62 | 191 | 2.6 | 5.2 | 0.00 | 0.00 | 0.00 | 37 | 1004.4 |
| 20260505001557 | 62 | 181 | 1.7 | 5.2 | 0.00 | 0.00 | 0.00 | 36 | 1004.3 |
| 20260505001055 | 63 | 148 | 1.7 | 5.2 | 0.00 | 0.00 | 0.00 | 36 | 1004.2 |
| 20260505000555 | 63 | 157 | 2.6 | 5.2 | 0.00 | 0.00 | 0.00 | 35 | 1004.0 |
| 20260505000114 | 64 | 170 | 1.7 | 7.0 | 0.00 | 0.00 | 0.00 | 35 | 1004.1 |
| 20260504235557 | 64 | 163 | 1.7 | 5.2 | 0.00 | 0.00 | 0.00 | 34 | 1004.1 |
| 20260504235055 | 64 | 163 | 0.9 | 5.2 | 0.00 | 0.00 | 0.00 | 34 | 1004.2 |
| 20260504234555 | 65 | 188 | 1.7 | 6.1 | 0.00 | 0.00 | 0.00 | 32 | 1004.1 |
| 20260504234055 | 65 | 184 | 3.5 | 6.1 | 0.00 | 0.00 | 0.00 | 32 | 1004.1 |
| 20260504233554 | 65 | 205 | 2.6 | 5.2 | 0.00 | 0.00 | 0.00 | 32 | 1004.1 |
| 20260504233108 | 65 | 77 | 1.7 | 7.0 | 0.00 | 0.00 | 0.00 | 33 | 1004.1 |
| 20260504232554 | 65 | 191 | 2.6 | 7.0 | 0.00 | 0.00 | 0.00 | 33 | 1004.0 |
| 20260504232053 | 65 | 205 | 0.0 | 5.2 | 0.00 | 0.00 | 0.00 | 33 | 1004.1 |
| 20260504231553 | 65 | 202 | 1.7 | 6.1 | 0.00 | 0.00 | 0.00 | 33 | 1004.1 |
| 20260504231053 | 65 | 203 | 1.7 | 6.1 | 0.00 | 0.00 | 0.00 | 32 | 1004.1 |
| 20260504230553 | 65 | 221 | 0.9 | 4.3 | 0.00 | 0.00 | 0.00 | 32 | 1004.2 |
| 20260504230053 | 66 | 244 | 0.9 | 9.6 | 0.00 | 0.00 | 0.00 | 32 | 1004.1 |
| 20260504225553 | 66 | 265 | 2.6 | 9.6 | 0.00 | 0.00 | 0.00 | 32 | 1004.0 |
| 20260504225053 | 66 | 185 | 3.5 | 9.6 | 0.00 | 0.00 | 0.00 | 30 | 1003.9 |
| 20260504224601 | 66 | 215 | 5.2 | 9.6 | 0.00 | 0.00 | 0.00 | 31 | 1003.9 |
| 20260504224052 | 66 | 164 | 1.7 | 6.1 | 0.00 | 0.00 | 0.00 | 32 | 1003.9 |
| 20260504223551 | 67 | 201 | 1.7 | 12.2 | 0.00 | 0.00 | 0.00 | 31 | 1003.9 |
| 20260504223112 | 67 | 226 | 2.6 | 12.2 | 0.00 | 0.00 | 0.00 | 30 | 1003.9 |
| 20260504222552 | 67 | 229 | 4.3 | 8.7 | 0.00 | 0.00 | 0.00 | 31 | 1004.0 |
| 20260504222052 | 67 | 213 | 1.7 | 6.1 | 0.00 | 0.00 | 0.00 | 32 | 1004.0 |
| 20260504221550 | 67 | 185 | 1.7 | 7.0 | 0.00 | 0.00 | 0.00 | 31 | 1004.0 |
| 20260504221053 | 66 | 208 | 2.6 | 7.8 | 0.00 | 0.00 | 0.00 | 31 | 1004.1 |
| 20260504220550 | 66 | 247 | 2.6 | 8.7 | 0.00 | 0.00 | 0.00 | 32 | 1004.1 |
| 20260504220050 | 66 | 196 | 2.6 | 13.0 | 0.00 | 0.00 | 0.00 | 32 | 1004.1 |
| 20260504215550 | 67 | 217 | 3.5 | 13.0 | 0.00 | 0.00 | 0.00 | 33 | 1004.1 |
| 20260504215050 | 67 | 294 | 3.5 | 9.6 | 0.00 | 0.00 | 0.00 | 31 | 1004.1 |
| 20260504214550 | 66 | 217 | 2.6 | 11.3 | 0.00 | 0.00 | 0.00 | 32 | 1004.1 |
| 20260504214050 | 66 | 199 | 3.5 | 11.3 | 0.00 | 0.00 | 0.00 | 33 | 1004.2 |
| 20260504213548 | 67 | 201 | 3.5 | 7.8 | 0.00 | 0.00 | 0.00 | 32 | 1004.1 |
| 20260504213057 | 66 | 220 | 2.6 | 8.7 | 0.00 | 0.00 | 0.00 | 34 | 1004.2 |
| 20260504212548 | 66 | 250 | 3.5 | 14.8 | 0.00 | 0.00 | 0.00 | 33 | 1004.2 |
| 20260504212047 | 66 | 184 | 6.1 | 13.9 | 0.00 | 0.00 | 0.00 | 32 | 1004.2 |
| 20260504211546 | 66 | 224 | 5.2 | 11.3 | 0.00 | 0.00 | 0.00 | 33 | 1004.2 |
| 20260504211046 | 66 | 194 | 2.6 | 12.2 | 0.00 | 0.00 | 0.00 | 33 | 1004.2 |
| 20260504210548 | 66 | 259 | 4.3 | 12.2 | 0.00 | 0.00 | 0.00 | 34 | 1004.3 |
| 20260504210046 | 66 | 241 | 3.5 | 13.0 | 0.00 | 0.00 | 0.00 | 34 | 1004.4 |
| 20260504205545 | 66 | 183 | 2.6 | 9.6 | 0.00 | 0.00 | 0.00 | 34 | 1004.4 |
| 20260504205047 | 65 | 213 | 4.3 | 10.4 | 0.00 | 0.00 | 0.00 | 35 | 1004.5 |
| 20260504204548 | 66 | 197 | 2.6 | 9.6 | 0.00 | 0.00 | 0.00 | 33 | 1004.4 |
| 20260504204044 | 67 | 234 | 3.5 | 12.2 | 0.00 | 0.00 | 0.00 | 33 | 1004.5 |
| 20260504203542 | 67 | 202 | 5.2 | 12.2 | 0.00 | 0.00 | 0.00 | 33 | 1004.6 |
| 20260504203058 | 66 | 199 | 1.7 | 14.8 | 0.00 | 0.00 | 0.00 | 35 | 1004.5 |
| 20260504202542 | 66 | 193 | 6.1 | 14.8 | 0.00 | 0.00 | 0.00 | 33 | 1004.6 |
| 20260504202046 | 66 | 212 | 2.6 | 10.4 | 0.00 | 0.00 | 0.00 | 36 | 1004.7 |
| 20260504201542 | 66 | 326 | 4.3 | 10.4 | 0.00 | 0.00 | 0.00 | 35 | 1004.7 |
| 20260504201039 | 65 | 192 | 5.2 | 10.4 | 0.00 | 0.00 | 0.00 | 35 | 1004.8 |
| 20260504200540 | 65 | 228 | 6.1 | 13.0 | 0.00 | 0.00 | 0.00 | 35 | 1004.8 |
| 20260504200039 | 65 | 216 | 2.6 | 16.5 | 0.00 | 0.00 | 0.00 | 36 | 1004.9 |
| 20260504195538 | 65 | 239 | 2.6 | 16.5 | 0.00 | 0.00 | 0.00 | 35 | 1004.9 |
| 20260504195038 | 66 | 228 | 6.1 | 13.0 | 0.00 | 0.00 | 0.00 | 35 | 1004.9 |
| 20260504194538 | 66 | 275 | 1.7 | 13.9 | 0.00 | 0.00 | 0.00 | 33 | 1004.9 |
| 20260504194037 | 67 | 255 | 3.5 | 13.9 | 0.00 | 0.00 | 0.00 | 34 | 1005.1 |
| 20260504193540 | 67 | 294 | 3.5 | 9.6 | 0.00 | 0.00 | 0.00 | 35 | 1004.9 |
| 20260504193037 | 66 | 198 | 2.6 | 9.6 | 0.00 | 0.00 | 0.00 | 39 | 1005.1 |
| 20260504192535 | 66 | 190 | 2.6 | 9.6 | 0.00 | 0.00 | 0.00 | 36 | 1005.1 |
| 20260504192035 | 66 | 241 | 2.6 | 8.7 | 0.00 | 0.00 | 0.00 | 36 | 1005.2 |
| 20260504191535 | 66 | 308 | 3.5 | 9.6 | 0.00 | 0.00 | 0.00 | 36 | 1005.3 |
| 20260504191034 | 66 | 234 | 4.3 | 9.6 | 0.00 | 0.00 | 0.00 | 36 | 1005.4 |
| 20260504190534 | 65 | 5 | 2.6 | 7.0 | 0.00 | 0.00 | 0.00 | 38 | 1005.4 |
| 20260504190037 | 65 | 200 | 2.6 | 8.7 | 0.00 | 0.00 | 0.00 | 35 | 1005.4 |
| 20260504185535 | 65 | 213 | 3.5 | 13.9 | 0.00 | 0.00 | 0.00 | 38 | 1005.4 |
| 20260504185036 | 66 | 305 | 4.3 | 13.9 | 0.00 | 0.00 | 0.00 | 34 | 1005.3 |
| 20260504184534 | 66 | 268 | 2.6 | 13.0 | 0.00 | 0.00 | 0.00 | 36 | 1005.4 |